EW0638 Weather Reports


time (UTC)temp
F
wind
direction
speed
knots
gust
knots
rain 1hr
in
rain 24hr
in
rain mn
in
humidity
%
barometer
mb
20260906104521 71 329 1.7 5.2 0.00 0.00 0.00 96 1015.0
20260906103021 71 303 2.6 5.2 0.00 0.00 0.00 96 1015.0
20260906101505 71 307 2.6 6.1 0.00 0.00 0.00 96 1014.9
20260906100003 71 321 3.5 6.1 0.00 0.00 0.00 96 1014.9
20260906094547 71 34 0.9 5.2 0.00 0.00 0.00 96 1014.9
20260906093047 71 331 1.7 4.3 0.00 0.00 0.00 96 1014.7
20260906091527 71 313 1.7 4.3 0.00 0.00 0.00 96 1014.7
20260906090026 71 331 1.7 5.2 0.00 0.00 0.00 96 1014.6
20260906084507 70 320 2.6 4.3 0.00 0.00 0.00 95 1014.6
20260906083012 70 306 2.6 5.2 0.00 0.00 0.00 95 1014.7
20260906081548 71 338 2.6 6.1 0.00 0.00 0.00 95 1014.5
20260906080047 71 319 2.6 5.2 0.00 0.00 0.00 94 1014.5
20260906074538 71 346 3.5 7.0 0.00 0.00 0.00 94 1014.4
20260906073031 72 302 3.5 7.0 0.00 0.00 0.00 93 1014.2
20260906071529 72 348 1.7 7.8 0.00 0.00 0.00 92 1014.3
20260906070027 73 321 2.6 5.2 0.00 0.00 0.00 92 1014.3
20260906064525 73 321 2.6 5.2 0.00 0.00 0.00 91 1014.5
20260906063026 74 311 1.7 4.3 0.00 0.00 0.00 90 1014.7
20260906061524 75 290 1.7 4.3 0.00 0.00 0.00 89 1014.6
20260906060018 75 319 2.6 7.0 0.00 0.00 0.00 88 1014.8
20260906054557 76 332 0.9 4.3 0.00 0.00 0.00 87 1014.7
20260906053106 77 336 0.9 3.5 0.00 0.00 0.00 85 1014.8
20260906051535 77 319 1.7 5.2 0.00 0.00 0.00 84 1014.7
20260906050039 78 320 1.7 5.2 0.00 0.00 0.00 84 1014.6
20260906044513 79 317 2.6 6.1 0.00 0.00 0.00 84 1014.5
20260906043013 80 313 0.9 2.6 0.00 0.00 0.00 83 1014.4
20260906041555 80 327 0.0 2.6 0.00 0.00 0.00 82 1014.1
20260906040046 81 323 2.6 6.1 0.00 0.00 0.00 82 1014.1
20260906034526 81 329 1.7 7.8 0.00 0.00 0.00 82 1014.0
20260906033027 82 299 2.6 7.0 0.00 0.00 0.00 82 1013.9
20260906031505 82 318 3.5 7.8 0.00 0.00 0.00 82 1013.5
20260906030002 83 315 5.2 9.6 0.00 0.00 0.00 81 1013.5
20260906024546 84 326 4.3 7.0 0.00 0.00 0.00 79 1013.3
20260906023050 84 325 3.5 8.7 0.00 0.00 0.00 78 1013.0
20260906021522 85 319 0.9 4.3 0.00 0.00 0.00 76 1012.8
20260906020023 85 336 0.9 3.5 0.00 0.00 0.00 75 1012.7
20260906014507 86 342 0.9 3.5 0.00 0.00 0.00 74 1012.8
20260906013005 87 335 0.0 3.5 0.00 0.00 0.00 72 1012.5
20260906011559 87 332 0.9 3.5 0.00 0.00 0.00 70 1012.3
20260906010047 88 325 0.0 1.7 0.00 0.00 0.00 68 1012.2
20260906004529 88 325 0.0 0.9 0.00 0.00 0.00 67 1012.1
20260906003028 89 325 0.0 1.7 0.00 0.00 0.00 65 1012.1
20260906001517 90 321 0.0 2.6 0.00 0.00 0.00 63 1012.1
20260906000032 91 317 0.9 4.3 0.00 0.00 0.00 62 1012.2
20260905234552 91 347 1.7 3.5 0.00 0.00 0.00 61 1012.1
20260905233052 92 333 0.9 5.2 0.00 0.00 0.00 59 1012.0
20260905231534 93 343 1.7 6.1 0.00 0.00 0.00 57 1011.9
20260905230034 93 338 1.7 5.2 0.00 0.00 0.00 56 1011.8
20260905224516 94 340 3.5 6.1 0.00 0.00 0.00 54 1011.6
20260905223015 95 320 2.6 7.0 0.00 0.00 0.00 52 1011.5
20260905221557 96 311 4.3 7.0 0.00 0.00 0.00 51 1011.6
20260905220059 96 355 2.6 6.1 0.00 0.00 0.00 51 1011.6
20260905214538 96 319 1.7 7.0 0.00 0.00 0.00 51 1011.7
20260905213040 96 313 2.6 6.1 0.00 0.00 0.00 49 1011.8
20260905211520 96 300 0.9 5.2 0.00 0.00 0.00 47 1011.7
20260905210017 96 330 0.0 4.3 0.00 0.00 0.00 45 1012.0
20260905204603 95 303 1.7 5.2 0.00 0.00 0.00 47 1012.3
20260905203057 93 277 0.9 4.3 0.00 0.00 0.00 47 1012.4
20260905201539 89 260 1.7 7.0 0.00 0.00 0.00 55 1012.7
20260905200041 88 276 0.9 6.1 0.00 0.00 0.00 59 1012.9
20260905194520 93 311 2.6 8.7 0.00 0.00 0.00 55 1012.7
20260905193020 95 298 5.2 8.7 0.00 0.00 0.00 51 1012.7
20260905191502 96 319 2.6 6.1 0.00 0.00 0.00 48 1012.7
20260905190001 99 268 2.6 7.0 0.00 0.00 0.00 43 1012.8
20260905184559 99 290 0.0 5.2 0.00 0.00 0.00 45 1012.8
20260905183046 98 335 2.6 6.1 0.00 0.00 0.00 46 1013.0
20260905181522 97 325 1.7 7.0 0.00 0.00 0.00 47 1013.0
20260905180021 96 292 0.9 5.2 0.00 0.00 0.00 47 1013.3
20260905174559 98 316 0.9 7.0 0.00 0.00 0.00 47 1013.4
20260905173110 98 319 0.9 7.0 0.00 0.00 0.00 47 1013.4
20260905171541 97 314 0.0 6.1 0.00 0.00 0.00 47 1013.6
20260905170039 97 341 2.6 7.0 0.00 0.00 0.00 47 1013.9
20260905164519 97 317 2.6 5.2 0.00 0.00 0.00 47 1014.0
20260905163018 97 282 0.0 3.5 0.00 0.00 0.00 49 1014.1
20260905161557 96 310 0.0 3.5 0.00 0.00 0.00 50 1014.1
20260905160055 96 329 0.9 4.3 0.00 0.00 0.00 51 1014.1
20260905154554 95 335 1.7 5.2 0.00 0.00 0.00 53 1014.3
20260905153034 94 329 0.0 4.3 0.00 0.00 0.00 54 1014.3
20260905151514 94 320 0.9 4.3 0.00 0.00 0.00 56 1014.4
20260905150013 93 316 2.6 5.2 0.00 0.00 0.00 57 1014.3
20260905144553 92 330 1.7 3.5 0.00 0.00 0.00 60 1014.3
20260905143050 91 314 0.0 3.5 0.00 0.00 0.00 63 1014.3
20260905141530 90 339 0.0 4.3 0.00 0.00 0.00 65 1014.4
20260905140026 88 300 0.0 2.6 0.00 0.00 0.00 68 1014.6
20260905134508 86 240 0.0 0.0 0.00 0.00 0.00 71 1014.6
20260905133007 84 240 0.0 0.0 0.00 0.00 0.00 75 1014.6
20260905131606 82 240 0.0 1.7 0.00 0.00 0.00 80 1014.6
20260905130057 80 224 0.0 0.0 0.00 0.00 0.00 86 1014.6
20260905124554 76 224 0.0 0.0 0.00 0.00 0.00 95 1014.6
20260905123057 74 224 0.0 0.0 0.00 0.00 0.00 95 1014.6
20260905121555 73 224 0.0 0.0 0.00 0.00 0.00 95 1014.6
20260905120050 73 224 0.0 0.0 0.00 0.00 0.00 94 1014.5
20260905114549 73 224 0.0 0.0 0.00 0.00 0.00 95 1014.4
20260905113044 73 224 0.0 0.0 0.00 0.00 0.00 95 1014.3
20260905111546 71 224 0.0 0.0 0.00 0.00 0.00 94 1014.2
20260905110029 72 224 0.0 0.0 0.00 0.00 0.00 94 1014.0